Tracking 30970 objects as of 3-Jul-2025
HD Live streaming from Space Station
objects crossing your sky now

NOAA 3

Track NOAA 3 now!
10-day predictions
NOAA 3 is classified as:


NORAD ID: 6920
Int'l Code: 1973-086A
Perigee: 1,506.7 km
Apogee: 1,517.5 km
Inclination: 102.3 °
Period: 116.1 minutes
Semi major axis: 7883 km
RCS: 3.3381 m2 (large)
Launch date: November 6, 1973
Source: United States (US)
Launch site: AIR FORCE WESTERN TEST RANGE (AFWTR)

Uplink (MHz):
Downlink (MHz):
Beacon (MHz):
Mode:
Call sign:
Status:

Your satellite tracking list
Your tracking list is empty




NASA's NSSDC Master Catalog

Two Line Element Set (TLE):
1 06920U 73086A   25183.95896709 -.00000033  00000-0  95928-4 0  9997
2 06920 102.2883 189.5035 0006844  49.3902 325.0908 12.40383415338601
Source of the keplerian elements: AFSPC